Location: Caltech
(34.1382°N, 118.1253°W)
Time: 11:51:57
(UTC-07:00)

Courier 1B - Visible Passes

Search period start: 02 September 2014 00:00
Search period end: 12 September 2014 00:00
Orbit: 963 x 1209 km, 28.3° (Epoch: 01 September)

Date Brightness Start Highest point End Pass type
(mag) Time Alt. Az. Time Alt. Az. Time Alt. Az.
02 Sep 9.9 05:10:14 10° S 05:14:45 16° SSE 05:19:14 10° ESE visible
03 Sep 10.0 04:18:30 10° SSE 04:21:04 12° SSE 04:23:38 10° SE visible
04 Sep 9.4 05:14:38 10° SSW 05:20:51 26° SSE 05:27:01 10° ESE visible
05 Sep 9.5 04:24:19 17° S 04:27:08 21° SSE 04:32:35 10° ESE visible
06 Sep 9.8 03:34:02 15° SE 03:34:02 15° SE 03:37:41 10° ESE visible
06 Sep 8.9 05:20:56 14° SW 05:27:01 37° SSE 05:34:00 10° E visible
07 Sep 9.0 04:30:37 25° S 04:33:15 31° SSE 04:39:53 10° E visible
08 Sep 9.3 03:40:17 24° SE 03:40:17 24° SE 03:45:35 10° ESE visible
08 Sep 8.5 05:27:11 16° SW 05:33:15 47° SSE 05:40:40 10° E visible
09 Sep 10.1 02:49:55 13° ESE 02:49:55 13° ESE 02:50:58 10° ESE visible
09 Sep 8.6 04:36:49 32° SSW 04:39:26 42° SSE 04:46:41 10° E visible
10 Sep 8.8 03:46:26 34° SSE 03:46:26 34° SSE 03:52:36 10° E visible
10 Sep 8.3 05:33:20 16° WSW 05:39:34 55° S 05:47:11 10° E visible
11 Sep 9.8 02:56:03 18° ESE 02:56:03 18° ESE 02:58:22 10° E visible
11 Sep 8.3 04:42:57 36° SW 04:45:42 51° S 04:53:15 10° E visible
